Location: Lombard
(41.8800°N, 88.0080°W)
Time: 17:10:43
(UTC-06:00)

Vanguard 3 - Pass Details

Date: 17 December 2023
Orbit: 508 x 3239 km, 33.4° (Epoch: 23 February)

Event Time Altitude Azimuth Distance (km) Brightness Sun altitude
Rises 16:45:06 0° 225° (SW) 6,870 13.7 -4.5°
Reaches altitude 10° 16:49:47 10° 220° (SW) 6,028 12.9 -5.3°
Maximum altitude 17:07:50 47° 155° (SSE) 3,812 10.5 -8.3°
Drops below altitude 10° 17:23:07 10° 89° (E) 5,191 10.7 -11.0°
Enters shadow 17:23:32 - 89° (E) 5,266 10.7 -11.0°
